Location: Beaver Brook Station
(42.3793°N, 71.2203°W)
Time: 07:29:04
(UTC+00:00)

Lacrosse 5 - Pass Details

Date: 29 October 2020
Orbit: 716 x 723 km, 57.0° (Epoch: 06 November)

Event Time Altitude Azimuth Distance (km) Brightness Sun altitude
Rises 23:09:55 0° 310° (NW) 3,124 5.9 -16.9°
Reaches altitude 10° 23:13:08 10° 331° (NNW) 2,203 4.7 -17.5°
Maximum altitude 23:16:24 17° 12° (NNE) 1,778 3.8 -18.1°
Enters shadow 23:17:47 15° 31° (NNE) 1,862 3.7 -18.3°
